Location: Invercargill
(46.4000°S, 168.3500°E)
Time: 18:55:22
(UTC+13:00)

SJ-6B - Pass Details

Date: 24 January 2019
Orbit: 511 x 582 km, 97.7° (Epoch: 21 February)

Event Time Altitude Azimuth Distance (km) Brightness Sun altitude
Rises 22:26:57 0° 170° (S) 2,671 6.8 -8.9°
Reaches altitude 10° 22:29:04 10° 172° (S) 1,776 5.9 -9.1°
Maximum altitude 22:32:52 69° 255° (WSW) 566 3.1 -9.6°
Drops below altitude 10° 22:36:39 10° 338° (NNW) 1,767 5.2 -10.1°
Sets 22:38:45 0° 340° (NNW) 2,655 6.1 -10.4°
